Regional Weather Roundup
Issued by NWS

Home | Current Version | Previous Version | Text Only | Print | Product List | Glossary On
Versions: 1 2 3 4 5 6 7 8 9 10 11 12 13 14 15 16 17 18 19 20 21 22 23 24 25 26 27 28 29 30 31 32 33 34 35 36 37 38 39 40 41 42 43 44 45 46 47 48 49 50
000
ASUS46 KPQR 080310
RWROR

OREGON REGIONAL WEATHER ROUNDUP
NATIONAL WEATHER SERVICE PORTLAND OR
800 PM PDT TUE APR 07 2020

NOTE: "FAIR" INDICATES FEW OR NO CLOUDS BELOW 12,000 FEET WITH
NO SIGNIFICANT WEATHER AND/OR OBSTRUCTIONS TO VISIBILITY.

ORZ001>013-080400-
NORTHWEST OREGON


CITY           SKY/WX    TMP DP  RH WIND       PRES   REMARKS
ASTORIA        FAIR      47  40  76 NW12      30.25S
TILLAMOOK      FAIR      46  41  81 W10G16    30.25R
NEWPORT        FAIR      46  41  81 N9G16       N/A
FLORENCE       FAIR      48  42  80 N8        30.18S
PORTLAND       FAIR      56  40  55 NW9       30.19S
VANCOUVER WA   FAIR      57  39  51 VRB7      30.19R
SCAPPOOSE      FAIR      54  39  57 NE3       30.19R
HILLSBORO      FAIR      55  39  54 N10       30.18S
AURORA         FAIR      56  39  53 NE5       30.19S
MCMINNVILLE    FAIR      55  41  59 NE5       30.18R
SALEM          FAIR      55  40  56 NE7       30.17R
CORVALLIS      FAIR      54  44  69 N7        30.18R
EUGENE         FAIR      51  42  71 N6        30.16S
CRESWELL       CLEAR     54  39  58 NW6       30.16R
$$

ORZ021-028-080400-
SOUTHWEST OREGON


CITY           SKY/WX    TMP DP  RH WIND       PRES   REMARKS
NORTH BEND     FAIR      48  43  82 N23       30.19S
BROOKINGS      FAIR      51  48  89 CALM      30.08S
ROSEBURG       FAIR      60  32  34 N8        30.13R
SEXTON SUMMIT  FAIR      43  40  89 N9G18     30.09S
GRANTS PASS    FAIR      59  43  55 NW9G17    30.11R
MEDFORD        FAIR      64  43  46 N8        30.04R
$$

ORZ014>016-041-080400-
COLUMBIA GORGE


CITY           SKY/WX    TMP DP  RH WIND       PRES   REMARKS
TROUTDALE      FAIR      58  38  47 NW5       30.18S
HOOD RIVER     FAIR      55  36  47 CALM      30.11S
THE DALLES     FAIR      58  37  45 NW14      30.07R
$$

ORZ029>031-041-044-049-050-061>064-502-503-505>511-080400-
EASTERN OREGON


CITY           SKY/WX    TMP DP  RH WIND       PRES   REMARKS
MADRAS         FAIR      50  23  34 W9        30.10R
REDMOND        FAIR      55  28  35 N5        30.08R
BEND           FAIR      55  27  33 N5        30.08R
PRINEVILLE     FAIR      54  27  35 N9        30.08R
KLAMATH FALLS  FAIR      51  27  39 CALM      30.04S
LAKEVIEW       FAIR      44  32  62 N8        30.07R
HERMISTON      FAIR      57  31  37 CALM      30.02R
PENDLETON      FAIR      57  29  34 CALM      30.04S
JOHN DAY       FAIR      54  29  38 NE3       30.08R
MEACHAM        FAIR      42  26  53 CALM      30.09R
LA GRANDE      FAIR      49  28  44 VRB3      30.08R
BAKER CITY     FAIR      49  30  48 NW6       30.07R
BURNS          FAIR      51  31  46 N12       30.06R
ROME             N/A     49  31  49 E6        30.04R
ONTARIO        FAIR      57  37  47 S5        30.02S
$$



USA.gov is the U.S. government's official web portal to all federal, state and local government web resources and services.